Location: ??????????
(42.1626°N, 44.1160°E)
Time: 13:30:23
(UTC+00:00)

USA 234 - Pass Details

Date: 03 March 2021
Orbit: 1102 x 1105 km, 123.0° (Epoch: 18 April)

Event Time Altitude Azimuth Distance (km) Brightness Sun altitude
Exits shadow 17:52:37 33° 20° (NNE) 1,769 4.3 -32.9°
Maximum altitude 17:55:05 47° 331° (NNW) 1,430 4.0 -33.3°
Drops below altitude 10° 18:01:16 10° 260° (W) 2,959 6.1 -34.3°
Sets 18:03:50 0° 255° (WSW) 3,915 6.8 -34.8°
